| time (UTC) | temp F | wind direction | speed MPH | gust MPH | rain 1hr in | rain 24hr in | rain mn in | humidity % | barometer mb |
| 20260505085651 | 0 | 0.0 | 0.0 | 0.00 | 0.00 | 0.00 | 1007.4 | ||
| 20260505085149 | 0 | 0.0 | 0.0 | 0.00 | 0.00 | 0.00 | 1007.2 | ||
| 20260505084646 | 0 | 0.0 | 0.0 | 0.00 | 0.00 | 0.00 | 1007.2 | ||
| 20260505084145 | 0 | 0.0 | 0.0 | 0.00 | 0.00 | 0.00 | 1007.3 | ||
| 20260505083642 | 0 | 0.0 | 0.0 | 0.00 | 0.00 | 0.00 | 1007.5 | ||
| 20260505083138 | 0 | 0.0 | 0.0 | 0.00 | 0.00 | 0.00 | 1007.2 | ||
| 20260505082634 | 0 | 0.0 | 0.0 | 0.00 | 0.00 | 0.00 | 1007.3 | ||
| 20260505082131 | 0 | 0.0 | 0.0 | 0.00 | 0.00 | 0.00 | 1007.3 | ||
| 20260505081627 | 0 | 0.0 | 0.0 | 0.00 | 0.00 | 0.00 | 1007.3 | ||
| 20260505081125 | 0 | 0.0 | 0.0 | 0.00 | 0.00 | 0.00 | 1007.4 | ||
| 20260505080621 | 0 | 0.0 | 0.0 | 0.00 | 0.00 | 0.00 | 1006.7 | ||
| 20260505080117 | 0 | 0.0 | 0.0 | 0.00 | 0.00 | 0.00 | 1006.4 | ||
| 20260505075614 | 0 | 0.0 | 0.0 | 0.00 | 0.00 | 0.00 | 1006.8 | ||
| 20260505075111 | 0 | 0.0 | 0.0 | 0.00 | 0.00 | 0.00 | 1006.7 | ||
| 20260505074607 | 0 | 0.0 | 0.0 | 0.00 | 0.00 | 0.00 | 1006.9 | ||
| 20260505074105 | 48 | 32 | 0.0 | 0.0 | 0.00 | 0.01 | 0.01 | 85 | 1006.8 |
| 20260505073602 | 48 | 32 | 0.0 | 0.0 | 0.00 | 0.01 | 0.01 | 85 | 1006.7 |
| 20260505073100 | 48 | 32 | 0.0 | 0.0 | 0.00 | 0.01 | 0.01 | 85 | 1006.8 |
| 20260505072555 | 47 | 32 | 0.0 | 0.0 | 0.00 | 0.01 | 0.01 | 85 | 1006.8 |
| 20260505072052 | 48 | 31 | 0.0 | 0.0 | 0.00 | 0.01 | 0.01 | 87 | 1007.2 |
| 20260505071548 | 48 | 31 | 0.0 | 0.0 | 0.00 | 0.01 | 0.01 | 86 | 1006.7 |
| 20260505071046 | 48 | 31 | 0.0 | 0.0 | 0.00 | 0.01 | 0.01 | 84 | 1006.6 |
| 20260505070543 | 48 | 31 | 0.0 | 0.0 | 0.00 | 0.01 | 0.01 | 82 | 1006.8 |
| 20260505070039 | 48 | 32 | 0.0 | 0.0 | 0.00 | 0.01 | 0.01 | 80 | 1006.8 |
| 20260505065535 | 48 | 32 | 0.0 | 0.0 | 0.07 | 0.01 | 0.01 | 79 | 1006.8 |
| 20260505065032 | 48 | 32 | 0.0 | 0.0 | 0.07 | 0.01 | 0.01 | 76 | 1006.5 |
| 20260505064529 | 0 | 0.0 | 0.0 | 0.00 | 0.00 | 0.00 | 1006.6 | ||
| 20260505064027 | 0 | 0.0 | 0.0 | 0.00 | 0.00 | 0.00 | 1006.6 | ||
| 20260505063524 | 50 | 32 | 0.0 | 1.0 | 0.00 | 0.00 | 0.00 | 67 | 1006.5 |
| 20260505063020 | 50 | 32 | 0.0 | 1.0 | 0.00 | 0.00 | 0.00 | 67 | 1007.2 |
| 20260505062517 | 50 | 32 | 0.0 | 1.0 | 0.00 | 0.00 | 0.00 | 67 | 1006.5 |
| 20260505062014 | 51 | 17 | 0.0 | 1.0 | 0.00 | 0.00 | 0.00 | 63 | 1006.6 |
| 20260505061512 | 51 | 5 | 1.0 | 2.0 | 0.00 | 0.00 | 0.00 | 62 | 1006.9 |
| 20260505061009 | 51 | 2 | 0.0 | 0.0 | 0.00 | 0.00 | 0.00 | 62 | 1007.5 |
| 20260505060506 | 51 | 356 | 2.0 | 2.0 | 0.00 | 0.00 | 0.00 | 61 | 1007.2 |
| 20260505060003 | 51 | 356 | 2.0 | 2.0 | 0.00 | 0.00 | 0.00 | 61 | 1006.9 |
| 20260505055458 | 51 | 28 | 0.0 | 1.0 | 0.00 | 0.00 | 0.00 | 60 | 1006.8 |
| 20260505054955 | 51 | 30 | 1.0 | 2.0 | 0.00 | 0.00 | 0.00 | 60 | 1007.0 |
| 20260505054453 | 51 | 29 | 0.0 | 1.0 | 0.00 | 0.00 | 0.00 | 60 | 1007.0 |
| 20260505053950 | 51 | 42 | 0.0 | 1.0 | 0.00 | 0.00 | 0.00 | 60 | 1007.0 |
| 20260505053447 | 51 | 38 | 2.0 | 3.0 | 0.00 | 0.00 | 0.00 | 60 | 1006.8 |
| 20260505052944 | 51 | 8 | 1.0 | 1.0 | 0.00 | 0.00 | 0.00 | 60 | 1006.7 |
| 20260505052441 | 51 | 318 | 1.0 | 3.0 | 0.00 | 0.00 | 0.00 | 59 | 1006.7 |
| 20260505051938 | 51 | 65 | 5.0 | 7.0 | 0.00 | 0.00 | 0.00 | 58 | 1006.3 |
| 20260505051435 | 51 | 27 | 2.0 | 2.0 | 0.00 | 0.00 | 0.00 | 60 | 1006.3 |
| 20260505050933 | 52 | 34 | 1.0 | 2.0 | 0.00 | 0.00 | 0.00 | 59 | 1006.3 |
| 20260505050431 | 52 | 19 | 1.0 | 1.0 | 0.00 | 0.00 | 0.00 | 60 | 1006.7 |
| 20260505041359 | 55 | 331 | 2.0 | 5.0 | 0.00 | 0.00 | 0.00 | 44 | 1007.1 |
| 20260505040856 | 55 | 39 | 2.0 | 2.0 | 0.00 | 0.00 | 0.00 | 43 | 1007.2 |
| 20260505040354 | 56 | 11 | 1.0 | 1.0 | 0.00 | 0.00 | 0.00 | 43 | 1006.9 |
| 20260505035850 | 56 | 343 | 5.0 | 6.0 | 0.00 | 0.00 | 0.00 | 42 | 1006.8 |
| 20260505035346 | 56 | 1 | 1.0 | 1.0 | 0.00 | 0.00 | 0.00 | 42 | 1006.8 |
| 20260505034843 | 56 | 321 | 3.0 | 3.0 | 0.00 | 0.00 | 0.00 | 42 | 1006.3 |
| 20260505034340 | 56 | 330 | 1.0 | 1.0 | 0.00 | 0.00 | 0.00 | 42 | 1006.4 |
| 20260505033837 | 56 | 48 | 1.0 | 2.0 | 0.00 | 0.00 | 0.00 | 42 | 1006.4 |
| 20260505033334 | 56 | 47 | 3.0 | 5.0 | 0.00 | 0.00 | 0.00 | 42 | 1006.5 |
| 20260505032832 | 56 | 357 | 6.0 | 10.0 | 0.00 | 0.00 | 0.00 | 42 | 1006.4 |
| 20260505032328 | 56 | 347 | 1.0 | 2.0 | 0.00 | 0.00 | 0.00 | 42 | 1005.8 |
| 20260505031825 | 57 | 1 | 4.0 | 7.0 | 0.00 | 0.00 | 0.00 | 41 | 1006.0 |
| 20260505031322 | 57 | 57 | 3.0 | 5.0 | 0.00 | 0.00 | 0.00 | 41 | 1006.1 |
| 20260505030819 | 57 | 350 | 1.0 | 1.0 | 0.00 | 0.00 | 0.00 | 43 | 1005.9 |
| 20260505030315 | 57 | 325 | 5.0 | 7.0 | 0.00 | 0.00 | 0.00 | 42 | 1005.8 |
| 20260505025811 | 57 | 60 | 1.0 | 2.0 | 0.00 | 0.00 | 0.00 | 43 | 1005.9 |
| 20260505025309 | 57 | 329 | 3.0 | 3.0 | 0.00 | 0.00 | 0.00 | 42 | 1005.8 |
| 20260505024807 | 57 | 295 | 5.0 | 8.0 | 0.00 | 0.00 | 0.00 | 41 | 1005.8 |
| 20260505024304 | 57 | 56 | 3.0 | 3.0 | 0.00 | 0.00 | 0.00 | 41 | 1005.7 |
| 20260505023801 | 57 | 289 | 5.0 | 8.0 | 0.00 | 0.00 | 0.00 | 41 | 1005.4 |
| 20260505023258 | 57 | 350 | 8.0 | 10.0 | 0.00 | 0.00 | 0.00 | 40 | 1005.4 |
| 20260505022755 | 58 | 348 | 4.0 | 6.0 | 0.00 | 0.00 | 0.00 | 40 | 1005.4 |
| 20260505022252 | 58 | 315 | 4.0 | 7.0 | 0.00 | 0.00 | 0.00 | 40 | 1004.8 |
| 20260505021749 | 58 | 295 | 3.0 | 6.0 | 0.00 | 0.00 | 0.00 | 41 | 1004.8 |
| 20260505021246 | 58 | 41 | 3.0 | 5.0 | 0.00 | 0.00 | 0.00 | 42 | 1004.7 |
| 20260505020742 | 58 | 29 | 2.0 | 2.0 | 0.00 | 0.00 | 0.00 | 42 | 1004.7 |
| 20260505020237 | 59 | 19 | 2.0 | 3.0 | 0.00 | 0.00 | 0.00 | 42 | 1004.3 |
| 20260505015735 | 59 | 353 | 6.0 | 10.0 | 0.00 | 0.00 | 0.00 | 42 | 1004.5 |
| 20260505015231 | 59 | 351 | 3.0 | 5.0 | 0.00 | 0.00 | 0.00 | 41 | 1004.6 |
| 20260505014728 | 60 | 320 | 1.0 | 1.0 | 0.00 | 0.00 | 0.00 | 41 | 1004.4 |
| 20260505014226 | 60 | 354 | 2.0 | 3.0 | 0.00 | 0.00 | 0.00 | 40 | 1004.0 |
| 20260505013722 | 60 | 317 | 4.0 | 6.0 | 0.00 | 0.00 | 0.00 | 39 | 1003.9 |
| 20260505013219 | 61 | 14 | 0.0 | 1.0 | 0.00 | 0.00 | 0.00 | 38 | 1003.8 |
| 20260505012718 | 61 | 18 | 6.0 | 9.0 | 0.00 | 0.00 | 0.00 | 37 | 1003.7 |
| 20260505012215 | 61 | 330 | 5.0 | 6.0 | 0.00 | 0.00 | 0.00 | 37 | 1003.8 |
| 20260505011710 | 62 | 339 | 2.0 | 2.0 | 0.00 | 0.00 | 0.00 | 37 | 1003.8 |
| 20260505011208 | 62 | 330 | 9.0 | 15.0 | 0.00 | 0.00 | 0.00 | 36 | 1003.6 |
| 20260505010703 | 63 | 33 | 3.0 | 3.0 | 0.00 | 0.00 | 0.00 | 35 | 1003.7 |
| 20260505010200 | 64 | 50 | 5.0 | 7.0 | 0.00 | 0.00 | 0.00 | 35 | 1003.4 |
| 20260505005656 | 64 | 303 | 6.0 | 11.0 | 0.00 | 0.00 | 0.00 | 34 | 1003.3 |
| 20260505005153 | 64 | 189 | 6.0 | 9.0 | 0.00 | 0.00 | 0.00 | 33 | 1003.1 |
| 20260505004650 | 65 | 340 | 4.0 | 5.0 | 0.00 | 0.00 | 0.00 | 33 | 1003.0 |
| 20260505004147 | 65 | 288 | 5.0 | 7.0 | 0.00 | 0.00 | 0.00 | 33 | 1003.1 |
| 20260505003644 | 66 | 293 | 5.0 | 9.0 | 0.00 | 0.00 | 0.00 | 33 | 1003.2 |
| 20260505003142 | 67 | 308 | 4.0 | 5.0 | 0.00 | 0.00 | 0.00 | 32 | 1002.9 |
| 20260505002637 | 67 | 334 | 4.0 | 7.0 | 0.00 | 0.00 | 0.00 | 32 | 1002.7 |
| 20260505002136 | 68 | 308 | 3.0 | 5.0 | 0.00 | 0.00 | 0.00 | 32 | 1002.7 |
| 20260505001632 | 69 | 303 | 6.0 | 14.0 | 0.00 | 0.00 | 0.00 | 31 | 1002.9 |
| 20260505001130 | 69 | 252 | 5.0 | 7.0 | 0.00 | 0.00 | 0.00 | 32 | 1002.7 |
| 20260505000627 | 69 | 40 | 1.0 | 2.0 | 0.00 | 0.00 | 0.00 | 32 | 1002.5 |
| 20260505000125 | 69 | 284 | 2.0 | 5.0 | 0.00 | 0.00 | 0.00 | 31 | 1002.3 |
| 20260504235621 | 69 | 281 | 2.0 | 3.0 | 0.00 | 0.00 | 0.00 | 32 | 1002.6 |
| 20260504235118 | 69 | 27 | 2.0 | 2.0 | 0.00 | 0.00 | 0.00 | 31 | 1002.5 |
| 20260504234615 | 70 | 309 | 3.0 | 3.0 | 0.00 | 0.00 | 0.00 | 31 | 1002.7 |
| 20260504234112 | 70 | 311 | 5.0 | 9.0 | 0.00 | 0.00 | 0.00 | 30 | 1002.3 |
| 20260504233608 | 71 | 316 | 4.0 | 9.0 | 0.00 | 0.00 | 0.00 | 30 | 1002.4 |
| 20260504233104 | 71 | 350 | 2.0 | 3.0 | 0.00 | 0.00 | 0.00 | 30 | 1002.6 |
| 20260504232602 | 71 | 325 | 4.0 | 6.0 | 0.00 | 0.00 | 0.00 | 30 | 1002.2 |
| 20260504232059 | 71 | 343 | 5.0 | 7.0 | 0.00 | 0.00 | 0.00 | 30 | 1002.1 |
| 20260504231555 | 72 | 26 | 3.0 | 3.0 | 0.00 | 0.00 | 0.00 | 30 | 1002.0 |
| 20260504231051 | 72 | 281 | 3.0 | 3.0 | 0.00 | 0.00 | 0.00 | 30 | 1001.9 |
| 20260504230547 | 73 | 355 | 4.0 | 6.0 | 0.00 | 0.00 | 0.00 | 29 | 1001.6 |
| 20260504230047 | 73 | 343 | 5.0 | 10.0 | 0.00 | 0.00 | 0.00 | 29 | 1001.6 |
| 20260504225543 | 73 | 329 | 2.0 | 2.0 | 0.00 | 0.00 | 0.00 | 29 | 1001.6 |
| 20260504225041 | 73 | 70 | 2.0 | 3.0 | 0.00 | 0.00 | 0.00 | 29 | 1001.5 |
| 20260504224537 | 74 | 307 | 4.0 | 9.0 | 0.00 | 0.00 | 0.00 | 29 | 1001.2 |
| 20260504224034 | 74 | 304 | 5.0 | 8.0 | 0.00 | 0.00 | 0.00 | 29 | 1001.2 |
| 20260504223531 | 74 | 11 | 4.0 | 9.0 | 0.00 | 0.00 | 0.00 | 29 | 1001.1 |
| 20260504223027 | 75 | 327 | 5.0 | 9.0 | 0.00 | 0.00 | 0.00 | 28 | 1000.9 |
| 20260504222524 | 75 | 321 | 3.0 | 6.0 | 0.00 | 0.00 | 0.00 | 28 | 1000.8 |
| 20260504222021 | 75 | 315 | 3.0 | 7.0 | 0.00 | 0.00 | 0.00 | 28 | 1000.7 |
| 20260504221518 | 75 | 344 | 2.0 | 5.0 | 0.00 | 0.00 | 0.00 | 29 | 1000.3 |
| 20260504221015 | 76 | 18 | 7.0 | 11.0 | 0.00 | 0.00 | 0.00 | 27 | 1000.3 |
| 20260504220512 | 76 | 327 | 1.0 | 1.0 | 0.00 | 0.00 | 0.00 | 29 | 1000.5 |
| 20260504220009 | 77 | 304 | 3.0 | 8.0 | 0.00 | 0.00 | 0.00 | 29 | 1000.3 |
| 20260504215505 | 77 | 356 | 2.0 | 2.0 | 0.00 | 0.00 | 0.00 | 28 | 1000.3 |
| 20260504215003 | 77 | 250 | 5.0 | 8.0 | 0.00 | 0.00 | 0.00 | 28 | 1000.2 |
| 20260504214458 | 77 | 12 | 2.0 | 3.0 | 0.00 | 0.00 | 0.00 | 30 | 1000.2 |
| 20260504213955 | 77 | 338 | 2.0 | 3.0 | 0.00 | 0.00 | 0.00 | 29 | 1000.3 |
| 20260504213451 | 77 | 333 | 2.0 | 2.0 | 0.00 | 0.00 | 0.00 | 29 | 1000.1 |
| 20260504212949 | 77 | 56 | 2.0 | 3.0 | 0.00 | 0.00 | 0.00 | 31 | 1000.0 |
| 20260504212444 | 78 | 323 | 1.0 | 1.0 | 0.00 | 0.00 | 0.00 | 31 | 1000.5 |
| 20260504211942 | 78 | 352 | 2.0 | 2.0 | 0.00 | 0.00 | 0.00 | 30 | 1000.2 |
| 20260504211438 | 78 | 10 | 1.0 | 2.0 | 0.00 | 0.00 | 0.00 | 32 | 1000.0 |
| 20260504210936 | 78 | 234 | 1.0 | 3.0 | 0.00 | 0.00 | 0.00 | 31 | 1000.0 |
| 20260504210433 | 78 | 295 | 2.0 | 2.0 | 0.00 | 0.00 | 0.00 | 32 | 999.9 |
| 20260504205930 | 78 | 314 | 1.0 | 2.0 | 0.00 | 0.00 | 0.00 | 31 | 1000.0 |
| 20260504205427 | 78 | 335 | 5.0 | 7.0 | 0.00 | 0.00 | 0.00 | 31 | 999.9 |
| 20260504204925 | 78 | 351 | 1.0 | 2.0 | 0.00 | 0.00 | 0.00 | 31 | 999.8 |
| 20260504204423 | 78 | 4 | 0.0 | 1.0 | 0.00 | 0.00 | 0.00 | 34 | 999.9 |
| 20260504203922 | 78 | 357 | 1.0 | 1.0 | 0.00 | 0.00 | 0.00 | 31 | 999.9 |
| 20260504203420 | 78 | 42 | 1.0 | 2.0 | 0.00 | 0.00 | 0.00 | 32 | 999.9 |
| 20260504202915 | 79 | 57 | 3.0 | 6.0 | 0.00 | 0.00 | 0.00 | 32 | 1000.0 |
| 20260504202412 | 79 | 339 | 1.0 | 2.0 | 0.00 | 0.00 | 0.00 | 34 | 999.8 |
| 20260504201909 | 80 | 330 | 2.0 | 7.0 | 0.00 | 0.00 | 0.00 | 34 | 1000.0 |
| 20260504201406 | 80 | 262 | 4.0 | 6.0 | 0.00 | 0.00 | 0.00 | 33 | 1000.0 |
| 20260504200903 | 81 | 289 | 1.0 | 1.0 | 0.00 | 0.00 | 0.00 | 35 | 999.7 |
| 20260504200400 | 81 | 328 | 0.0 | 1.0 | 0.00 | 0.00 | 0.00 | 34 | 999.7 |
| 20260504195857 | 80 | 105 | 0.0 | 0.0 | 0.00 | 0.00 | 0.00 | 34 | 999.8 |
| 20260504195352 | 80 | 7 | 0.0 | 0.0 | 0.00 | 0.00 | 0.00 | 33 | 999.9 |
| 20260504194849 | 80 | 73 | 0.0 | 0.0 | 0.00 | 0.00 | 0.00 | 32 | 999.8 |
| 20260504194345 | 82 | 18 | 3.0 | 3.0 | 0.00 | 0.00 | 0.00 | 32 | 999.9 |
| 20260504193841 | 81 | 351 | 1.0 | 1.0 | 0.00 | 0.00 | 0.00 | 35 | 999.7 |
| 20260504193339 | 81 | 343 | 2.0 | 2.0 | 0.00 | 0.00 | 0.00 | 32 | 999.5 |
| 20260504192838 | 81 | 304 | 1.0 | 2.0 | 0.00 | 0.00 | 0.00 | 32 | 999.8 |
| 20260504192335 | 82 | 305 | 7.0 | 10.0 | 0.00 | 0.00 | 0.00 | 31 | 999.7 |
| 20260504191833 | 82 | 163 | 2.0 | 3.0 | 0.00 | 0.00 | 0.00 | 31 | 999.3 |
| 20260504191330 | 82 | 326 | 1.0 | 3.0 | 0.00 | 0.00 | 0.00 | 31 | 999.7 |
| 20260504190826 | 82 | 203 | 2.0 | 3.0 | 0.00 | 0.00 | 0.00 | 33 | 999.5 |
| 20260504190322 | 82 | 328 | 2.0 | 2.0 | 0.00 | 0.00 | 0.00 | 31 | 999.3 |
| 20260504185819 | 82 | 287 | 3.0 | 5.0 | 0.00 | 0.00 | 0.00 | 28 | 999.4 |
| 20260504185316 | 82 | 16 | 7.0 | 9.0 | 0.00 | 0.00 | 0.00 | 30 | 999.3 |
| 20260504184812 | 82 | 324 | 3.0 | 5.0 | 0.00 | 0.00 | 0.00 | 29 | 999.4 |
| 20260504184308 | 83 | 354 | 5.0 | 10.0 | 0.00 | 0.00 | 0.00 | 29 | 999.2 |
| 20260504183803 | 83 | 216 | 1.0 | 1.0 | 0.00 | 0.00 | 0.00 | 30 | 999.4 |
| 20260504183301 | 83 | 350 | 0.0 | 1.0 | 0.00 | 0.00 | 0.00 | 32 | 999.2 |
| 20260504182759 | 83 | 27 | 1.0 | 2.0 | 0.00 | 0.00 | 0.00 | 28 | 999.0 |
| 20260504182256 | 83 | 301 | 0.0 | 1.0 | 0.00 | 0.00 | 0.00 | 30 | 999.3 |
| 20260504181753 | 83 | 288 | 1.0 | 2.0 | 0.00 | 0.00 | 0.00 | 32 | 998.9 |
| 20260504181250 | 82 | 13 | 1.0 | 2.0 | 0.00 | 0.00 | 0.00 | 30 | 999.3 |
| 20260504180749 | 82 | 13 | 0.0 | 0.0 | 0.00 | 0.00 | 0.00 | 30 | 999.2 |
| 20260504180248 | 81 | 318 | 3.0 | 6.0 | 0.00 | 0.00 | 0.00 | 31 | 999.4 |
| 20260504175745 | 81 | 27 | 4.0 | 6.0 | 0.00 | 0.00 | 0.00 | 28 | 999.6 |
| 20260504175242 | 81 | 340 | 2.0 | 2.0 | 0.00 | 0.00 | 0.00 | 31 | 999.5 |
| 20260504174739 | 81 | 312 | 1.0 | 2.0 | 0.00 | 0.00 | 0.00 | 32 | 999.6 |
| 20260504174237 | 80 | 269 | 3.0 | 5.0 | 0.00 | 0.00 | 0.00 | 29 | 999.7 |
| 20260504173733 | 80 | 318 | 2.0 | 2.0 | 0.00 | 0.00 | 0.00 | 30 | 999.6 |
| 20260504173231 | 80 | 335 | 1.0 | 2.0 | 0.00 | 0.00 | 0.00 | 32 | 999.7 |
| 20260504172727 | 80 | 309 | 2.0 | 2.0 | 0.00 | 0.00 | 0.00 | 33 | 999.5 |
| 20260504172224 | 79 | 7 | 0.0 | 1.0 | 0.00 | 0.00 | 0.00 | 34 | 999.6 |
| 20260504171720 | 78 | 11 | 1.0 | 1.0 | 0.00 | 0.00 | 0.00 | 32 | 999.4 |
| 20260504171217 | 78 | 0 | 1.0 | 2.0 | 0.00 | 0.00 | 0.00 | 33 | 999.6 |
| 20260504170714 | 77 | 341 | 1.0 | 1.0 | 0.00 | 0.00 | 0.00 | 33 | 999.6 |
| 20260504170212 | 76 | 359 | 0.0 | 1.0 | 0.00 | 0.00 | 0.00 | 35 | 999.6 |
| 20260504160130 | 71 | 351 | 0.0 | 1.0 | 0.00 | 0.00 | 0.00 | 43 | 999.8 |
| 20260504151057 | 67 | 83 | 0.0 | 1.0 | 0.00 | 0.00 | 0.00 | 50 | 999.5 |
| 20260504150555 | 67 | 70 | 0.0 | 0.0 | 0.00 | 0.00 | 0.00 | 48 | 1000.0 |
| 20260504141020 | 62 | 13 | 0.0 | 0.0 | 0.00 | 0.00 | 0.00 | 52 | 1000.1 |
| 20260504140517 | 62 | 12 | 0.0 | 0.0 | 0.00 | 0.00 | 0.00 | 54 | 1000.3 |
| 20260504130441 | 0 | 0.0 | 0.0 | 0.00 | 0.00 | 0.00 | 999.7 | ||
| 20260504110328 | 48 | 69 | 0.0 | 0.0 | 0.00 | 0.00 | 0.00 | 81 | 999.9 |
| 20260504100246 | 49 | 69 | 0.0 | 0.0 | 0.00 | 0.00 | 0.00 | 76 | 1000.2 |